Time,TemperatureF,DewpointF,PressureIn,WindDirection,WindDirectionDegrees,WindSpeedMPH,WindSpeedGustMPH,Humidity,HourlyPrecipIn,Conditions,Clouds,dailyrainin,SoftwareType,DateUTC
2013-02-01 00:32:00,33.1,17.4,29.38,West,275,21.0,32.0,52,0.00,,,0.00,VWS V13.01,2013-02-01 05:32:00,
2013-02-01 01:02:00,32.5,18.1,29.40,West,266,12.0,28.0,55,0.00,,,0.00,VWS V13.01,2013-02-01 06:02:00,
2013-02-01 01:32:00,31.9,18.8,29.41,West,277,13.0,23.0,58,0.00,,,0.00,VWS V13.01,2013-02-01 06:32:00,
2013-02-01 02:02:00,31.8,18.3,29.42,West,272,13.0,25.0,57,0.00,,,0.00,VWS V13.01,2013-02-01 07:02:00,
2013-02-01 02:32:00,31.4,17.5,29.43,West,272,9.0,21.0,56,0.00,,,0.00,VWS V13.01,2013-02-01 07:32:00,
2013-02-01 03:02:00,31.0,15.9,29.43,West,269,13.0,22.0,53,0.00,,,0.00,VWS V13.01,2013-02-01 08:02:00,
2013-02-01 03:32:00,30.7,15.2,29.44,West,281,13.0,23.0,52,0.00,,,0.00,VWS V13.01,2013-02-01 08:32:00,
2013-02-01 04:02:00,30.5,14.1,29.45,West,263,17.0,25.0,50,0.00,,,0.00,VWS V13.01,2013-02-01 09:02:00,
2013-02-01 04:32:00,30.0,13.6,29.46,WSW,253,13.0,26.0,50,0.00,,,0.00,VWS V13.01,2013-02-01 09:32:00,
2013-02-01 05:02:00,29.7,14.2,29.47,West,268,13.0,25.0,52,0.00,,,0.00,VWS V13.01,2013-02-01 10:02:00,
2013-02-01 05:32:00,29.4,13.5,29.49,WNW,291,15.0,25.0,51,0.00,,,0.00,VWS V13.01,2013-02-01 10:32:00,
2013-02-01 06:02:00,29.0,13.1,29.50,WSW,257,14.0,25.0,51,0.00,,,0.00,VWS V13.01,2013-02-01 11:02:00,
2013-02-01 06:32:00,28.8,12.5,29.52,West,271,10.0,20.0,50,0.00,,,0.00,VWS V13.01,2013-02-01 11:32:00,
2013-02-01 07:02:00,28.5,12.7,29.53,West,281,9.0,18.0,51,0.00,,,0.00,VWS V13.01,2013-02-01 12:02:00,
2013-02-01 07:32:00,28.9,13.1,29.55,NW,315,5.0,20.0,51,0.00,,,0.00,VWS V13.01,2013-02-01 12:32:00,
2013-02-01 08:02:00,28.3,11.6,29.58,NW,304,13.0,19.0,49,0.00,,,0.00,VWS V13.01,2013-02-01 13:02:00,
2013-02-01 08:32:00,27.4,11.2,29.59,NW,321,11.0,24.0,50,0.00,,,0.00,VWS V13.01,2013-02-01 13:32:00,
2013-02-01 09:02:00,28.1,12.3,29.60,NW,308,22.0,25.0,51,0.00,,,0.00,VWS V13.01,2013-02-01 14:02:00,
2013-02-01 09:32:00,28.4,11.2,29.61,WNW,292,14.0,31.0,48,0.00,,,0.00,VWS V13.01,2013-02-01 14:32:00,
2013-02-01 10:02:00,29.0,11.8,29.63,NW,311,20.0,27.0,48,0.00,,,0.00,VWS V13.01,2013-02-01 15:02:00,
2013-02-01 10:32:00,28.6,10.9,29.65,NW,322,18.0,25.0,47,0.00,,,0.00,VWS V13.01,2013-02-01 15:32:00,
2013-02-01 11:02:00,29.0,10.3,29.66,NW,318,16.0,24.0,45,0.00,,,0.00,VWS V13.01,2013-02-01 16:02:00,
2013-02-01 11:32:00,29.4,9.7,29.66,NW,313,18.0,27.0,43,0.00,,,0.00,VWS V13.01,2013-02-01 16:32:00,
2013-02-01 12:02:00,29.0,9.3,29.67,NNW,329,16.0,28.0,43,0.00,,,0.00,VWS V13.01,2013-02-01 17:02:00,
2013-02-01 12:32:00,28.0,6.3,29.67,NNW,338,20.0,33.0,39,0.00,,,0.00,VWS V13.01,2013-02-01 17:32:00,
2013-02-01 13:02:00,27.8,7.2,29.68,North,349,29.0,30.0,41,0.00,,,0.00,VWS V13.01,2013-02-01 18:02:00,
2013-02-01 13:32:00,27.8,7.2,29.68,NNW,344,18.0,32.0,41,0.00,,,0.00,VWS V13.01,2013-02-01 18:32:00,
2013-02-01 14:02:00,27.3,7.2,29.68,North,355,16.0,33.0,42,0.00,,,0.00,VWS V13.01,2013-02-01 19:02:00,
2013-02-01 14:32:00,27.8,7.2,29.67,NNW,342,24.0,31.0,41,0.00,,,0.00,VWS V13.01,2013-02-01 19:32:00,
2013-02-01 15:02:00,27.2,7.7,29.68,North,360,19.0,30.0,43,0.00,,,0.00,VWS V13.01,2013-02-01 20:02:00,
2013-02-01 15:32:00,27.1,7.1,29.71,NNW,334,20.0,29.0,42,0.00,,,0.00,VWS V13.01,2013-02-01 20:32:00,
2013-02-01 16:02:00,27.0,7.5,29.72,North,360,13.0,25.0,43,0.00,,,0.00,VWS V13.01,2013-02-01 21:02:00,
2013-02-01 16:32:00,26.1,7.7,29.74,North,9,15.0,20.0,45,0.00,,,0.00,VWS V13.01,2013-02-01 21:32:00,
2013-02-01 17:02:00,25.2,6.8,29.75,North,355,14.0,23.0,45,0.00,,,0.00,VWS V13.01,2013-02-01 22:02:00,
2013-02-01 17:32:00,24.5,7.2,29.78,NNW,344,10.0,18.0,47,0.00,,,0.00,VWS V13.01,2013-02-01 22:32:00,
2013-02-01 18:02:00,23.8,7.9,29.81,North,360,9.0,12.0,50,0.00,,,0.00,VWS V13.01,2013-02-01 23:02:00,
2013-02-01 18:32:00,22.9,7.9,29.83,North,9,6.0,16.0,52,0.00,,,0.00,VWS V13.01,2013-02-01 23:32:00,
2013-02-01 19:02:00,22.2,7.7,29.85,North,350,5.0,13.0,53,0.00,,,0.00,VWS V13.01,2013-02-02 00:02:00,
2013-02-01 19:32:00,21.4,8.1,29.87,North,350,11.0,12.0,56,0.00,,,0.00,VWS V13.01,2013-02-02 00:32:00,
2013-02-01 20:02:00,20.9,8.1,29.89,NNW,348,9.0,13.0,57,0.00,,,0.00,VWS V13.01,2013-02-02 01:02:00,
2013-02-01 20:32:00,20.6,7.4,29.90,NNW,340,9.0,15.0,56,0.00,,,0.00,VWS V13.01,2013-02-02 01:32:00,
2013-02-01 21:02:00,20.3,5.9,29.91,NNW,336,9.0,19.0,53,0.00,,,0.00,VWS V13.01,2013-02-02 02:02:00,
2013-02-01 21:32:00,20.0,5.2,29.92,NNW,340,15.0,20.0,52,0.00,,,0.00,VWS V13.01,2013-02-02 02:32:00,
2013-02-01 22:02:00,19.7,4.5,29.93,NNW,329,8.0,22.0,51,0.00,,,0.00,VWS V13.01,2013-02-02 03:02:00,
2013-02-01 22:32:00,19.2,4.1,29.94,North,360,15.0,23.0,51,0.00,,,0.00,VWS V13.01,2013-02-02 03:32:00,
2013-02-01 23:02:00,18.4,3.3,29.95,NNW,342,17.0,26.0,51,0.00,,,0.00,VWS V13.01,2013-02-02 04:02:00,
2013-02-01 23:32:00,17.9,2.8,29.96,NNW,330,21.0,27.0,51,0.00,,,0.00,VWS V13.01,2013-02-02 04:32:00,